Flag for France Weather past 2 weeks in Paris, France

Now
63 °F

Partly sunny.


Feels Like: 63 °F
Forecast: 59 / 73 °F
Wind: 8 mph from South

Location: Villacoublay

Current Time: Aug 28, 2014 at 9:22:49 AM

Latest Report: Aug 28, 2014 at 9:00 AM


Visibility: N/A

Pressure: 29.95 "Hg

Humidity: 94%

Dew point: 61 °F

Location of ParisLocation

Historic Weather in Paris — Graph

°F

Paris temperature yesterday

Maximum temperature yesterday: 70 °F (at 4:00 PM)
Minimum temperature yesterday: 57 °F (at 3:00 AM)
Average temperature yesterday: 63 °F

Past Weeks' High & Low Weather Summary

 TemperatureHumidityPressure
High72 °F (Aug 16, 3:30 PM)100% (Aug 15, 3:30 AM)30.21 "Hg (Aug 15, 3:30 AM)
Low46 °F (Aug 21, 3:30 AM)40% (Aug 21, 3:30 PM)29.68 "Hg (Aug 25, 10:30 PM)
Average60 °F74%29.97 "Hg
* Reported Aug 13 8:00 AM — Aug 28 8:00 AM, Paris, Weather by CustomWeather, © 2014

Note: Actual official high and low records may vary slightly from our data, if they occured in-between our weather recording intervals... More about our weather records

Advertising

Paris weather history for previous 24 hours

 ConditionsComfort  
Time TempWeatherWind HumidityBarometerVisibility
8:00 AM
Aug 28
63 °FPassing clouds.5 mph94%29.95 "HgN/A
7:30 AM61 °FPassing clouds.7 mph94%29.95 "HgN/A
7:00 AM61 °FPassing clouds.6 mph94%29.95 "HgN/A
6:30 AM61 °FPartly cloudy.5 mph94%29.95 "HgN/A
6:00 AM61 °FLow clouds.6 mph94%29.95 "HgN/A
5:30 AM61 °FDrizzle. Fog.7 mph94%29.95 "Hg3 mi
5:00 AM61 °FOvercast.6 mph94%29.95 "HgN/A
4:30 AM61 °FPassing clouds.5 mph94%29.95 "HgN/A
4:00 AM61 °FMostly cloudy.5 mph94%29.98 "HgN/A
3:30 AM63 °FLight rain. Partly cloudy.6 mph88%29.98 "HgN/A
3:00 AM63 °FPartly cloudy.7 mph83%29.98 "HgN/A
2:30 AM63 °FOvercast.8 mph83%29.98 "HgN/A
2:00 AM63 °FClear.9 mph83%29.98 "HgN/A
1:30 AM63 °FPartly cloudy.6 mph83%29.98 "HgN/A
1:00 AM63 °FPassing clouds.6 mph88%29.98 "HgN/A
12:30 AM63 °FPassing clouds.6 mph83%29.98 "HgN/A
12:00 AM63 °FPassing clouds.7 mph83%29.98 "HgN/A
11:30 PM
Aug 27
63 °FPassing clouds.5 mph83%30.01 "HgN/A
11:00 PM63 °FClear.5 mph83%30.01 "HgN/A
10:30 PM64 °FClear.5 mph78%30.01 "HgN/A
10:00 PM64 °FClear.3 mph83%30.01 "HgN/A
9:30 PM64 °FClear.5 mph78%30.01 "HgN/A
9:00 PM64 °FClear.3 mph83%29.98 "HgN/A
8:30 PM66 °FPartly sunny.6 mph78%29.98 "HgN/A
8:00 PM66 °FClear.5 mph73%29.98 "HgN/A
7:30 PM66 °FClear.5 mph73%29.98 "HgN/A
7:00 PM68 °FBroken clouds.5 mph69%29.98 "HgN/A
6:30 PM68 °FPartly sunny.5 mph69%29.98 "HgN/A
6:00 PM68 °FClear.5 mph69%29.98 "HgN/A
5:00 PM68 °FBroken clouds.8 mph69%29.98 "HgN/A
4:30 PM68 °FPartly sunny.7 mph69%29.98 "HgN/A
4:00 PM70 °FBroken clouds.6 mph64%29.98 "HgN/A
3:30 PM68 °FOvercast.6 mph69%30.01 "HgN/A
3:00 PM68 °FMore clouds than sun.6 mph73%30.01 "HgN/A
2:30 PM68 °FMore clouds than sun.8 mph73%29.98 "HgN/A
2:00 PM68 °FOvercast.8 mph73%29.98 "HgN/A
1:30 PM66 °FMore clouds than sun.7 mph78%29.98 "HgN/A
1:00 PM64 °FBroken clouds.6 mph83%30.01 "HgN/A
12:30 PM66 °FBroken clouds.3 mph78%29.98 "HgN/A
12:00 PM64 °FPartly sunny.5 mph83%29.98 "HgN/A
11:30 AM64 °FBroken clouds.5 mph88%29.98 "HgN/A
11:00 AM63 °FCloudy.3 mph88%29.98 "HgN/A
10:30 AM63 °FMostly cloudy.3 mph88%29.98 "HgN/A
10:00 AM61 °FMostly cloudy.3 mph94%29.98 "HgN/A
9:30 AM61 °FMostly cloudy.1 mph94%29.95 "HgN/A
9:00 AM61 °FMostly cloudy.2 mph94%29.95 "HgN/A
Weather by CustomWeather, © 2014

See weather overviewHow to use our weather pages